Location: Hamilton
(43.2500°N, 79.8330°W)
Time: 03:40:38
(UTC-04:00)

Amateur Radio Satellites - All Passes

Search period start: 26 October 2014 03:10
Search period end: 27 October 2014 03:10
Location: Hamilton, 43.2500°N, 79.8330°W

Satellite Date Start Highest point End Downlink Frequencies (MHz)
Time Altitude Azimuth
Sapphire 26 Oct 03:14:10 03:17:58 20° 106° (ESE) 03:21:46 437.095 MHz 1200 baud AX-25 AFSK
Uribyol 2 26 Oct 03:30:36 03:35:49 67° 102° (ESE) 03:40:58 436.500 FM
PCSat 26 Oct 03:35:22 03:40:08 33° 110° (ESE) 03:44:55 145.825 MHz
ITAMSAT 1 26 Oct 03:36:57 03:42:11 72° 103° (ESE) 03:47:23 435.822 SSB
RS-15 26 Oct 03:47:16 03:55:39 24° 5° (N) 04:04:12 29.354 - 29.394 USB, Beacon 29.352 USB
OPAL 26 Oct 03:57:36 03:59:49 13° 55° (NE) 04:02:01 ?
JAS-1B 26 Oct 04:01:40 04:08:02 51° 291° (WNW) 04:15:34 435.800 - 435.900 CW/SSB
Oscar 19 26 Oct 04:02:39 04:07:01 29° 294° (WNW) 04:11:22 437.125 CW, 437.150 USB
Gurwin Techsat 1B 26 Oct 04:04:07 04:09:26 69° 102° (ESE) 04:14:43 435.225 FM
TMSAT-1 26 Oct 04:14:32 04:19:49 64° 102° (ESE) 04:25:04 436.925 FM
AO-7 26 Oct 04:19:27 04:25:27 21° 91° (E) 04:31:25 29.400 - 29.500 MHz
AO-27 26 Oct 04:23:10 04:28:08 44° 291° (WNW) 04:33:04 436.795 MHz FM
AO-Echo 26 Oct 04:33:19 04:37:50 29° 294° (WNW) 04:42:20 ?
Uosat F 26 Oct 04:41:31 04:44:42 17° 91° (E) 04:47:51 435.120 FM
Oscar 16 26 Oct 04:50:38 04:52:31 12° 303° (WNW) 04:54:23 437.025 USB, Beacon 2401.1428
Sapphire 26 Oct 04:55:31 05:00:52 62° 304° (WNW) 05:06:16 437.095 MHz 1200 baud AX-25 AFSK
Uribyol 2 26 Oct 05:11:22 05:14:44 18° 300° (WNW) 05:18:06 436.500 FM
ITAMSAT 1 26 Oct 05:17:52 05:21:05 17° 301° (WNW) 05:24:17 435.822 SSB
PCSat 26 Oct 05:18:22 05:23:26 40° 309° (NW) 05:28:33 145.825 MHz
OPAL 26 Oct 05:32:47 05:37:56 86° 73° (ENE) 05:43:03 ?
STRAND 1 26 Oct 05:43:49 05:46:13 13° 58° (ENE) 05:48:37 ?
Gurwin Techsat 1B 26 Oct 05:45:25 05:48:50 18° 300° (WNW) 05:52:15 435.225 FM
TMSAT-1 26 Oct 05:55:37 05:59:13 19° 299° (WNW) 06:02:49 436.925 FM
JAS-2 26 Oct 06:00:00 06:07:03 36° 94° (E) 06:14:02 435.800 - 435.900 CW/SSB, 435.910 FM
RS-15 26 Oct 06:01:37 06:12:01 43° 38° (NE) 06:22:45 29.354 - 29.394 USB, Beacon 29.352 USB
AO-7 26 Oct 06:10:46 06:19:08 84° 290° (WNW) 06:27:28 29.400 - 29.500 MHz
Uosat F 26 Oct 06:18:54 06:23:53 61° 288° (WNW) 06:28:51 435.120 FM
Hamsat 26 Oct 06:36:13 06:40:00 32° 96° (E) 06:43:46 145.90 MHz
Sapphire 26 Oct 06:42:42 06:45:26 14° 325° (NW) 06:48:10 437.095 MHz 1200 baud AX-25 AFSK
OPAL 26 Oct 07:15:36 07:17:26 12° 269° (W) 07:19:15 ?
STRAND 1 26 Oct 07:19:31 07:24:39 89° 254° (WSW) 07:29:50 ?
Saudisat 1A 26 Oct 07:25:05 07:29:02 34° 116° (ESE) 07:33:02 436.775 MHz
JAS-2 26 Oct 07:44:43 07:52:13 54° 292° (WNW) 07:59:44 435.800 - 435.900 CW/SSB, 435.910 FM
AO-7 26 Oct 08:04:59 08:10:46 22° 311° (NW) 08:16:34 29.400 - 29.500 MHz
Hamsat 26 Oct 08:12:28 08:15:48 23° 293° (WNW) 08:19:08 145.90 MHz
RS-15 26 Oct 08:14:07 08:25:10 70° 243° (WSW) 08:36:43 29.354 - 29.394 USB, Beacon 29.352 USB
SO-67 26 Oct 08:25:12 08:28:39 76° 101° (E) 08:32:05 435.3500 MHz FM
MaSat-1 26 Oct 08:25:16 08:25:45 10° 49° (NE) 08:26:13 437.345 MHz
STRAND 1 26 Oct 09:03:27 09:04:33 11° 273° (W) 09:05:40 ?
Saudisat 1A 26 Oct 09:04:45 09:08:38 30° 314° (NW) 09:12:32 436.775 MHz
HO-68 26 Oct 09:12:38 09:18:08 23° 92° (E) 09:23:35 435.675 MHz FM
JAS-2 26 Oct 09:32:36 09:35:36 13° 311° (NW) 09:38:38 435.800 - 435.900 CW/SSB, 435.910 FM
UKube-1 26 Oct 09:53:47 09:55:46 13° 90° (E) 09:57:45 145.840 MHz, 145.915 MHz
MaSat-1 26 Oct 09:59:15 10:01:28 25° 250° (WSW) 10:03:32 437.345 MHz
RS-15 26 Oct 10:29:41 10:35:26 16° 263° (W) 10:41:20 29.354 - 29.394 USB, Beacon 29.352 USB
Oscar 11 26 Oct 10:32:22 10:36:14 32° 96° (E) 10:40:05 145.825 FM, Beacon 2401.500 USB
FUNcube-1 26 Oct 10:35:31 10:37:48 14° 90° (E) 10:40:04 145.950 - 145.970 MHz USB
HO-68 26 Oct 10:59:15 11:06:25 71° 290° (WNW) 11:13:33 435.675 MHz FM
KITSAT 1 26 Oct 11:19:42 11:25:53 25° 104° (ESE) 11:32:04 435.175 FM
ZACube-1 26 Oct 11:25:59 11:30:09 51° 99° (E) 11:34:12 437.345 MHz
UKube-1 26 Oct 11:28:02 11:32:22 62° 287° (WNW) 11:36:39 145.840 MHz, 145.915 MHz
Sapphire 26 Oct 11:59:39 12:04:02 24° 44° (NE) 12:08:24 437.095 MHz 1200 baud AX-25 AFSK
Oscar 10/S400 26 Oct 12:01:18 12:16:48 19° 150° (SSE) 12:29:02 145.825 - 145.975 CW/USB, Beacon 145.810 USB
Oscar 11 26 Oct 12:08:48 12:12:17 24° 293° (WNW) 12:15:44 145.825 FM, Beacon 2401.500 USB
FUNcube-1 26 Oct 12:10:24 12:14:32 50° 287° (WNW) 12:18:33 145.950 - 145.970 MHz USB
PCSat 26 Oct 12:21:43 12:26:42 35° 50° (NE) 12:31:39 145.825 MHz
HO-68 26 Oct 12:49:02 12:52:53 16° 310° (NW) 12:56:44 435.675 MHz FM
Oscar 16 26 Oct 12:49:14 12:53:04 22° 63° (ENE) 12:56:54 437.025 USB, Beacon 2401.1428
JAS-1B 26 Oct 13:00:14 13:04:50 25° 62° (ENE) 13:09:22 435.800 - 435.900 CW/SSB
ZACube-1 26 Oct 13:03:38 13:06:07 15° 297° (WNW) 13:08:34 437.345 MHz
ISS 26 Oct 13:08:57 13:12:16 77° 145° (SE) 13:15:36 145.800 FM
KITSAT 1 26 Oct 13:12:24 13:20:28 76° 304° (NW) 13:28:36 435.175 FM
Uribyol 2 26 Oct 13:12:47 13:15:54 16° 59° (ENE) 13:19:01 436.500 FM
ITAMSAT 1 26 Oct 13:19:01 13:22:20 17° 60° (ENE) 13:25:39 435.822 SSB
SO-50 26 Oct 13:21:04 13:25:33 82° 123° (ESE) 13:30:13 436.795 FM
Oscar 19 26 Oct 13:40:52 13:45:55 59° 72° (ENE) 13:50:59 437.125 CW, 437.150 USB
Sapphire 26 Oct 13:42:31 13:47:54 63° 244° (WSW) 13:53:14 437.095 MHz 1200 baud AX-25 AFSK
Gurwin Techsat 1B 26 Oct 13:48:54 13:52:16 17° 60° (ENE) 13:55:39 435.225 FM
TMSAT-1 26 Oct 13:59:17 14:02:24 16° 59° (ENE) 14:05:33 436.925 FM
AO-27 26 Oct 14:03:11 14:08:03 41° 68° (ENE) 14:12:56 436.795 MHz FM
PCSat 26 Oct 14:05:09 14:10:08 38° 249° (WSW) 14:15:04 145.825 MHz
AO-Echo 26 Oct 14:08:10 14:12:57 54° 71° (ENE) 14:17:56 ?
Oscar 16 26 Oct 14:27:02 14:32:03 52° 260° (W) 14:37:06 437.025 USB, Beacon 2401.1428
UOSAT-12 26 Oct 14:35:25 14:39:50 45° 118° (ESE) 14:44:19 437.025 FM, 437.400 FM
ISS 26 Oct 14:46:22 14:49:14 26° 344° (NNW) 14:52:06 145.800 FM
Uribyol 2 26 Oct 14:49:32 14:54:44 75° 257° (WSW) 15:00:00 436.500 FM
JAS-1B 26 Oct 14:49:40 14:55:19 46° 261° (W) 15:00:45 435.800 - 435.900 CW/SSB
ITAMSAT 1 26 Oct 14:56:04 15:01:15 70° 258° (WSW) 15:06:29 435.822 SSB
SO-50 26 Oct 15:03:39 15:06:44 18° 323° (NW) 15:09:53 436.795 FM
KITSAT 1 26 Oct 15:11:00 15:17:18 24° 328° (NNW) 15:23:37 435.175 FM
AO-7 26 Oct 15:19:28 15:26:41 35° 57° (ENE) 15:33:54 29.400 - 29.500 MHz
Oscar 19 26 Oct 15:22:14 15:25:39 18° 269° (W) 15:29:03 437.125 CW, 437.150 USB
Gurwin Techsat 1B 26 Oct 15:26:22 15:31:39 70° 258° (WSW) 15:36:59 435.225 FM
TMSAT-1 26 Oct 15:36:23 15:41:41 77° 257° (WSW) 15:47:01 436.925 FM
AO-27 26 Oct 15:43:21 15:47:41 26° 266° (W) 15:52:03 436.795 MHz FM
AO-Echo 26 Oct 15:48:44 15:52:06 18° 269° (W) 15:55:33 ?
Saudisat 1A 26 Oct 15:50:24 15:54:35 39° 49° (NE) 15:58:45 436.775 MHz
Uosat F 26 Oct 15:55:29 15:59:38 27° 65° (ENE) 16:03:49 435.120 FM
JAS-2 26 Oct 16:15:48 16:19:33 17° 52° (NE) 16:23:33 435.800 - 435.900 CW/SSB, 435.910 FM
UOSAT-12 26 Oct 16:16:11 16:20:10 27° 317° (NW) 16:24:12 437.025 FM, 437.400 FM
ISS 26 Oct 16:24:12 16:26:42 19° 4° (N) 16:29:13 145.800 FM
AO-7 26 Oct 17:10:57 17:19:04 59° 257° (WSW) 17:27:15 29.400 - 29.500 MHz
KITSAT 1 26 Oct 17:12:36 17:16:17 13° 358° (N) 17:19:59 435.175 FM
Saudisat 1A 26 Oct 17:30:21 17:33:58 25° 246° (WSW) 17:37:34 436.775 MHz
Hamsat 26 Oct 17:30:45 17:34:16 26° 68° (ENE) 17:37:46 145.90 MHz
Uosat F 26 Oct 17:33:33 17:38:14 39° 262° (W) 17:42:58 435.120 FM
OPAL 26 Oct 17:42:42 17:46:14 19° 95° (E) 17:49:44 ?
JAS-2 26 Oct 17:57:21 18:03:23 83° 74° (ENE) 18:10:19 435.800 - 435.900 CW/SSB, 435.910 FM
ISS 26 Oct 18:00:52 18:04:02 39° 24° (NNE) 18:07:12 145.800 FM
SO-67 26 Oct 18:58:56 19:01:53 27° 71° (ENE) 19:04:52 435.3500 MHz FM
Hamsat 26 Oct 19:06:33 19:10:09 27° 265° (W) 19:13:44 145.90 MHz
KITSAT 1 26 Oct 19:09:34 19:15:28 21° 28° (NNE) 19:21:21 435.175 FM
OPAL 26 Oct 19:20:36 19:25:25 51° 292° (WNW) 19:30:11 ?
STRAND 1 26 Oct 19:29:33 19:34:00 29° 95° (E) 19:38:25 ?
ISS 26 Oct 19:37:39 19:40:41 33° 222° (SW) 19:43:43 145.800 FM
HO-68 26 Oct 19:43:26 19:48:31 22° 54° (NE) 19:53:37 435.675 MHz FM
JAS-2 26 Oct 19:45:51 19:49:30 16° 276° (W) 19:53:24 435.800 - 435.900 CW/SSB, 435.910 FM
SO-50 26 Oct 20:11:57 20:15:19 18° 38° (NE) 20:18:41 436.795 FM
SO-67 26 Oct 20:32:35 20:34:54 17° 267° (W) 20:37:14 435.3500 MHz FM
RS-15 26 Oct 20:32:59 20:38:42 16° 97° (E) 20:44:23 29.354 - 29.394 USB, Beacon 29.352 USB
UKube-1 26 Oct 20:50:31 20:52:50 14° 61° (ENE) 20:55:10 145.840 MHz, 145.915 MHz
KITSAT 1 26 Oct 21:04:34 21:12:37 64° 53° (NE) 21:20:36 435.175 FM
STRAND 1 26 Oct 21:08:31 21:13:14 37° 292° (WNW) 21:17:54 ?
UOSAT-12 26 Oct 21:25:31 21:27:21 12° 30° (NNE) 21:29:10 437.025 FM, 437.400 FM
HO-68 26 Oct 21:28:12 21:35:23 84° 254° (WSW) 21:42:37 435.675 MHz FM
Oscar 11 26 Oct 21:28:30 21:32:14 29° 68° (ENE) 21:35:59 145.825 FM, Beacon 2401.500 USB
FUNcube-1 26 Oct 21:32:56 21:35:40 16° 63° (ENE) 21:38:23 145.950 - 145.970 MHz USB
SO-50 26 Oct 21:51:37 21:56:29 85° 237° (WSW) 22:01:23 436.795 FM
ZACube-1 26 Oct 22:22:58 22:27:23 49° 72° (ENE) 22:31:43 437.345 MHz
UKube-1 26 Oct 22:24:13 22:28:31 62° 258° (WSW) 22:32:52 145.840 MHz, 145.915 MHz
RS-15 26 Oct 22:38:01 22:48:56 73° 118° (ESE) 22:59:47 29.354 - 29.394 USB, Beacon 29.352 USB
KITSAT 1 26 Oct 23:00:41 23:07:28 31° 253° (WSW) 23:14:15 435.175 FM
UOSAT-12 26 Oct 23:03:56 23:08:35 53° 51° (NE) 23:13:08 437.025 FM, 437.400 FM
Oscar 11 26 Oct 23:04:45 23:08:23 26° 265° (W) 23:12:02 145.825 FM, Beacon 2401.500 USB
FUNcube-1 26 Oct 23:07:06 23:11:36 58° 260° (W) 23:16:03 145.950 - 145.970 MHz USB
HO-68 26 Oct 23:20:14 23:24:05 15° 272° (W) 23:27:58 435.675 MHz FM
SO-50 26 Oct 23:35:08 23:36:18 11° 254° (WSW) 23:37:27 436.795 FM
MaSat-1 26 Oct 23:35:24 23:39:16 43° 113° (ESE) 23:42:47 437.345 MHz
ZACube-1 27 Oct 00:00:59 00:04:00 17° 268° (W) 00:07:01 437.345 MHz
UOSAT-12 27 Oct 00:44:56 00:48:20 20° 249° (WSW) 00:51:42 437.025 FM, 437.400 FM
RS-15 27 Oct 00:52:04 01:02:09 40° 324° (NW) 01:12:22 29.354 - 29.394 USB, Beacon 29.352 USB
MaSat-1 27 Oct 01:12:17 01:14:56 17° 307° (NW) 01:17:26 437.345 MHz
Oscar 19 27 Oct 01:52:22 01:55:58 19° 92° (E) 01:59:32 437.125 CW, 437.150 USB
AO-Echo 27 Oct 02:15:16 02:18:48 18° 90° (E) 02:22:18 ?
AO-27 27 Oct 02:16:54 02:19:18 13° 89° (E) 02:21:41 436.795 MHz FM
JAS-1B 27 Oct 02:29:55 02:36:26 44° 99° (E) 02:44:07 435.800 - 435.900 CW/SSB
Oscar 16 27 Oct 02:37:33 02:42:33 51° 100° (E) 02:47:30 437.025 USB, Beacon 2401.1428
Sapphire 27 Oct 02:44:59 02:47:43 14° 103° (ESE) 02:50:27 437.095 MHz 1200 baud AX-25 AFSK
